Miscellaneous Local Product
Issued by NWS Hastings, NE

Home | Current Version | Previous Version | Graphics & Text | Print | Product List | Glossary On
Versions: 1 2 3 4 5 6 7 8 9 10 11 12 13 14 15 16 17 18 19 20 21 22 23 24 25 26 27 28 29 30 31 32 33 34 35 36 37 38 39 40 41 42 43 44 45 46 47 48 49 50
158
AXUS43 KGID 300802
MISGRI

GID CWA HOURLY WEATHER ROUNDUP
NATIONAL WEATHER SERVICE HASTINGS NE
300 AM CDT SAT APR 30 2016

NOTE: "FAIR" INDICATES FEW OR NO CLOUDS BELOW 12,000 FEET WITH NO
SIGNIFICANT WEATHER AND/OR OBSTRUCTIONS TO VISIBILITY.

...SOUTH CENTRAL NEBRASKA...

CITY           SKY/WX    TMP DP  RH WIND       PRES   REMARKS
GRAND ISLAND   RAIN      42  40  92 NE14      29.80S FOG
HASTINGS       LGT RAIN  42  40  92 NE16      29.76F FOG
KEARNEY        CLOUDY    41  39  93 NE9       29.80F
ORD            RAIN      40  38  93 E14G22    29.82R FOG     WCI  32
YORK           HVY RAIN  43  41  93 E13G23    29.78R
AURORA         LGT RAIN  43  42  97 NE13      29.79R
LEXINGTON      LGT RAIN  39  37  90 NE9       29.82F WCI  33
HOLDREGE       RAIN      41  40  95 NE12      29.79F
HEBRON         LGT RAIN  45  44  96 NE7       29.75S

...NEBRASKA PANHANDLE...

CITY           SKY/WX    TMP DP  RH WIND       PRES   REMARKS
CHADRON        LGT RAIN  37  35  92 NE14      29.96S WCI  28
ALLIANCE       LGT SNOW  32  32 100 N12       29.89F VSB 1   WCI  23
SCOTTSBLUFF    LGT SNOW  33  31  92 N6        29.93S FOG     WCI  28
SIDNEY         LGT SNOW  32  31  96 N13       29.88F FOG     WCI  22

...WESTERN AND NORTH CENTRAL NEBRASKA...

CITY           SKY/WX    TMP DP  RH WIND       PRES   REMARKS
VALENTINE      LGT RAIN  40  37  89 NE15      29.93F WCI  32
AINSWORTH      LGT RAIN  40  39  97 NE20      29.90F WCI  30
ONEILL         LGT RAIN  42  39  90 NE17G25   29.89F
BROKEN BOW     RAIN      39  37  92 NE9       29.83F FOG     WCI  33
IMPERIAL       LGT SNOW  33  32  96 NW13      29.84F FOG     WCI  24
NORTH PLATTE   FLURRIES  33  32  96 NE6       29.84F WCI  28
MCCOOK         LGT RAIN  38  36  92 NE12      29.80F FOG     WCI  30

...EASTERN NEBRASKA...

CITY           SKY/WX    TMP DP  RH WIND       PRES   REMARKS
NORFOLK        CLOUDY    42  38  85 NE17G25   29.83F
SO SIOUX CITY  CLOUDY    47  39  74 E16       29.91F
TEKAMAH        LGT RAIN  46  42  86 E16       29.85F
COLUMBUS       CLOUDY    43  36  75 NE22G31   29.80F
ALBION         LGT RAIN  41  39  93 NE22G28   29.80F
OMAHA EPPLEY   RAIN      46  43  89 NE15G30   29.81F FOG
OFFUTT AFB     LGT RAIN  46  46 100 NE14G25   29.79F FOG
MILLARD        LGT RAIN  46  44  91 E10G21    29.80F
LINCOLN        LGT RAIN  46  43  89 E18G28    29.76F FOG
NEBRASKA CITY  RAIN      46  46 100 E18G26    29.76F
BEATRICE       LGT RAIN  46  44  95 E15G24    29.72F
FALLS CITY     LGT RAIN  49  47  93 E17       29.70F

...NORTHERN KANSAS...

CITY           SKY/WX    TMP DP  RH WIND       PRES   REMARKS
GOODLAND       CLOUDY    32  31  96 NW15      29.81F WCI  22
HILL CITY      CLOUDY    42  40  92 N16       29.76F
NORTON         CLOUDY    39  37  93 N12       29.75F FOG     WCI  32
PHILLIPSBURG   CLOUDY    45  45 100 N8        29.75F FOG
SMITH CENTER   CLOUDY    43  43 100 N10       29.74F
BELOIT         CLOUDY    45  45 100 N12       29.69F
HAYS           CLOUDY    45  36  70 NW12      29.73F
RUSSELL        CLOUDY    45  44  97 NW12      29.70F FOG
CONCORDIA      LGT RAIN  47  46  97 N9        29.70F FOG
SALINA         CLOUDY    51  50  96 N12       29.67F
TOPEKA         LGT RAIN  54  53  97 E14       29.65F FOG



USA.gov is the U.S. government's official web portal to all federal, state and local government web resources and services.